Location: El Atico
(3.0014°N, 75.4378°W)
Time: 12:37:55
(UTC+00:00)

Intercosmos 25 - Pass Details

Date: 09 December 2025
Orbit: 438 x 2818 km, 82.6° (Epoch: 25 January)

Event Time Altitude Azimuth Distance (km) Brightness Sun altitude
Rises 23:44:31 0° 176° (S) 2,731 7.1 -12.7°
Reaches altitude 10° 23:46:20 10° 172° (S) 1,980 6.3 -13.1°
Maximum altitude 23:50:33 62° 91° (E) 904 4.1 -14.1°
Drops below altitude 10° 23:57:13 10° 11° (N) 3,109 6.8 -15.6°
Sets 00:00:40 0° 9° (N) 4,461 7.6 -16.4°
